GW3520 Weather Reports


time (UTC)temp
C
wind
direction
speed
KPH
gust
KPH
rain 1hr
cm
rain 24hr
cm
rain mn
cm
humidity
%
barometer
mb
20260504215003 16 347 4.8 4.8 0.00 0.03 0.03 43 1009.1
20260504214458 16 325 4.8 9.7 0.00 0.03 0.03 44 1009.1
20260504213955 16 357 6.4 11.3 0.00 0.03 0.03 44 1009.1
20260504213451 16 301 9.7 12.9 0.00 0.03 0.03 43 1009.0
20260504212949 16 358 12.9 14.5 0.00 0.03 0.03 46 1008.9
20260504212444 16 334 8.0 12.9 0.00 0.03 0.03 42 1008.9
20260504211942 16 317 11.3 12.9 0.00 0.03 0.03 41 1008.9
20260504211438 16 359 9.7 14.5 0.00 0.03 0.03 40 1008.8
20260504210936 15 295 9.7 14.5 0.00 0.03 0.03 43 1009.2
20260504210432 15 346 24.1 30.6 0.00 0.03 0.03 43 1008.9
20260504205929 15 7 19.3 25.7 0.00 0.03 0.03 45 1009.1
20260504205427 16 325 14.5 24.1 0.00 0.03 0.03 41 1009.6
20260504204926 16 324 9.7 14.5 0.00 0.03 0.03 41 1009.8
20260504204423 16 22 3.2 14.5 0.00 0.03 0.03 40 1009.7
20260504203922 16 327 4.8 9.7 0.00 0.03 0.03 43 1009.7
20260504203420 16 44 3.2 9.7 0.00 0.03 0.03 41 1009.7
20260504202915 16 188 3.2 6.4 0.00 0.03 0.03 43 1009.6
20260504202412 16 125 3.2 9.7 0.00 0.03 0.03 42 1009.7
20260504201909 16 300 1.6 6.4 0.00 0.03 0.03 45 1009.8
20260504201407 16 168 0.0 4.8 0.00 0.03 0.03 47 1010.2
20260504200904 16 17 4.8 9.7 0.00 0.03 0.03 47 1010.2
20260504200400 15 42 6.4 14.5 0.00 0.03 0.03 47 1010.2
20260504195857 15 11 6.4 14.5 0.00 0.03 0.03 45 1009.9
20260504195352 16 65 11.3 20.9 0.00 0.03 0.03 42 1010.1
20260504194849 15 2 9.7 16.1 0.00 0.03 0.03 48 1009.8
20260504194345 16 350 8.0 17.7 0.00 0.03 0.03 45 1009.9
20260504193841 15 347 3.2 6.4 0.00 0.03 0.03 47 1009.5
20260504193339 16 165 3.2 4.8 0.00 0.03 0.03 44 1009.5
20260504192838 15 190 1.6 4.8 0.00 0.03 0.03 45 1008.9
20260504192335 16 219 1.6 3.2 0.13 0.03 0.03 51 1009.0
20260504191833 15 20 3.2 9.7 0.13 0.03 0.03 52 1008.9
20260504191331 15 23 9.7 24.1 0.00 0.00 0.00 50 1009.0
20260504190826 18 355 9.7 20.9 0.00 0.00 0.00 39 1008.4
20260504190322 18 17 3.2 14.5 0.00 0.00 0.00 28 1008.3
20260504185818 18 12 6.4 14.5 0.00 0.00 0.00 27 1008.1
20260504185316 18 317 14.5 22.5 0.00 0.00 0.00 28 1008.2
20260504184812 20 356 20.9 25.7 0.00 0.00 0.00 25 1008.2
20260504184308 21 136 1.6 3.2 0.00 0.00 0.00 22 1008.3
20260504183804 21 195 1.6 3.2 0.00 0.00 0.00 23 1008.0
20260504183301 21 177 4.8 4.8 0.00 0.00 0.00 21 1007.9
20260504182759 22 13 0.0 4.8 0.00 0.00 0.00 22 1008.0
20260504182256 21 187 0.0 3.2 0.00 0.00 0.00 22 1008.0
20260504181753 22 279 3.2 17.7 0.00 0.00 0.00 23 1008.1
20260504181250 22 5 9.7 22.5 0.00 0.00 0.00 22 1007.9
20260504180750 22 345 20.9 27.4 0.00 0.00 0.00 21 1008.0
20260504180248 23 27 3.2 12.9 0.00 0.00 0.00 21 1008.1
20260504175745 24 171 3.2 6.4 0.00 0.00 0.00 19 1008.3
20260504175242 23 142 0.0 4.8 0.00 0.00 0.00 19 1008.1
20260504174740 23 337 6.4 14.5 0.00 0.00 0.00 20 1008.2
20260504174237 23 354 9.7 17.7 0.00 0.00 0.00 20 1008.2
20260504173733 23 354 3.2 20.9 0.00 0.00 0.00 20 1008.4
20260504173231 23 349 22.5 29.0 0.00 0.00 0.00 20 1008.2
20260504172727 22 340 12.9 20.9 0.00 0.00 0.00 22 1008.1
20260504172224 23 329 6.4 14.5 0.00 0.00 0.00 19 1008.2
20260504171720 22 80 8.0 11.3 0.00 0.00 0.00 19 1008.2
20260504171217 23 311 6.4 9.7 0.00 0.00 0.00 19 1008.2
20260504170714 23 307 3.2 6.4 0.00 0.00 0.00 22 1008.4
20260504170212 23 123 3.2 11.3 0.00 0.00 0.00 20 1008.3
20260504160130 18 166 0.0 4.8 0.00 0.00 0.00 34 1008.8
20260504151057 15 125 1.6 3.2 0.00 0.00 0.00 41 1008.9
20260504150554 14 186 0.0 1.6 0.00 0.00 0.00 39 1009.1
20260504141020 10 346 6.4 6.4 0.00 0.00 0.00 48 1009.4
20260504140516 10 340 6.4 6.4 0.00 0.00 0.00 49 1009.5
20260504130441 5 221 0.0 0.0 0.00 0.00 0.00 67 1009.4
20260504110328 3 215 0.0 0.0 0.00 0.00 0.00 69 1009.9
20260504100245 3 221 0.0 0.0 0.00 0.00 0.00 71 1010.1
20260504081638 6 217 0.0 0.0 0.00 0.00 0.00 61 1010.9
20260504081135 6 217 0.0 0.0 0.00 0.00 0.00 60 1010.7
20260504080631 6 228 0.0 0.0 0.00 0.00 0.00 58 1010.9
20260504080128 6 246 0.0 0.0 0.00 0.00 0.00 62 1011.1
20260504050444 11 269 0.0 3.2 0.00 0.00 0.00 43 1012.0
20260504045941 11 281 1.6 3.2 0.00 0.00 0.00 40 1011.8
20260504045437 12 191 0.0 0.0 0.00 0.00 0.00 39 1011.9
20260504044933 13 320 3.2 9.7 0.00 0.00 0.00 39 1012.0
20260504044431 13 6 6.4 9.7 0.00 0.00 0.00 37 1012.0
20260504043928 13 331 8.0 12.9 0.00 0.00 0.00 37 1012.0
20260504043425 12 14 3.2 4.8 0.00 0.00 0.00 38 1012.1
20260504042917 13 332 3.2 6.4 0.00 0.00 0.00 37 1011.8
20260504042413 13 192 3.2 4.8 0.00 0.00 0.00 36 1011.3
20260504041910 13 179 3.2 4.8 0.00 0.00 0.00 35 1011.2
20260504041406 15 169 3.2 4.8 0.00 0.00 0.00 34 1011.6
20260504040902 15 186 3.2 4.8 0.00 0.00 0.00 32 1011.4
20260504040400 15 156 4.8 9.7 0.00 0.00 0.00 31 1011.8
20260504035855 15 161 4.8 11.3 0.00 0.00 0.00 31 1011.6
20260504035353 16 42 1.6 4.8 0.00 0.00 0.00 31 1012.3
20260504034850 16 69 9.7 11.3 0.00 0.00 0.00 30 1011.7
20260504034347 16 159 9.7 16.1 0.00 0.00 0.00 30 1011.3
20260504033844 16 337 4.8 6.4 0.00 0.00 0.00 30 1012.0
20260504033342 16 211 4.8 6.4 0.00 0.00 0.00 29 1011.6
20260504032838 16 172 3.2 4.8 0.00 0.00 0.00 27 1011.8
20260504032336 17 166 6.4 9.7 0.00 0.00 0.00 26 1011.3
20260504031832 17 180 4.8 6.4 0.00 0.00 0.00 25 1011.0
20260504031330 17 156 3.2 6.4 0.00 0.00 0.00 24 1011.2
20260504030826 17 115 6.4 6.4 0.00 0.00 0.00 23 1011.1
20260504030324 16 178 1.6 3.2 0.00 0.00 0.00 24 1011.1
20260504025820 15 167 1.6 3.2 0.00 0.00 0.00 27 1011.1
20260504025317 15 347 1.6 4.8 0.00 0.00 0.00 33 1011.1
20260504024813 16 192 0.0 0.0 0.00 0.00 0.00 29 1011.0
20260504024309 16 184 0.0 1.6 0.00 0.00 0.00 28 1010.7
20260504023806 15 183 0.0 1.6 0.00 0.00 0.00 29 1011.0
20260504023303 16 260 1.6 1.6 0.00 0.00 0.00 30 1011.0
20260504022759 16 210 0.0 0.0 0.00 0.00 0.00 29 1010.6
20260504022255 16 201 0.0 0.0 0.00 0.00 0.00 28 1010.9
20260504021752 16 207 0.0 0.0 0.00 0.00 0.00 30 1010.5
20260504021250 16 207 0.0 0.0 0.00 0.00 0.00 30 1010.7
20260504020746 16 207 0.0 0.0 0.00 0.00 0.00 30 1010.6
20260504020243 16 214 0.0 0.0 0.00 0.00 0.00 29 1010.7
20260504015739 17 214 0.0 0.0 0.00 0.00 0.00 29 1010.5
20260504015236 17 224 0.0 0.0 0.00 0.00 0.00 32 1010.6
20260504014731 19 330 3.2 3.2 0.00 0.00 0.00 28 1010.7
20260504014228 19 193 0.0 1.6 0.00 0.00 0.00 24 1010.5
20260504013726 19 151 0.0 0.0 0.00 0.00 0.00 23 1010.6
20260504013223 19 191 0.0 0.0 0.00 0.00 0.00 24 1010.4
20260504012720 19 203 0.0 0.0 0.00 0.00 0.00 23 1010.3
20260504012218 20 194 0.0 0.0 0.00 0.00 0.00 23 1010.9
20260504011714 20 179 0.0 0.0 0.00 0.00 0.00 22 1010.5
20260504011212 19 194 0.0 0.0 0.00 0.00 0.00 23 1010.9
20260504010707 20 188 0.0 0.0 0.00 0.00 0.00 24 1010.6
20260504010203 20 191 0.0 0.0 0.00 0.00 0.00 24 1010.7
20260504005659 20 181 0.0 0.0 0.00 0.00 0.00 26 1010.6
20260504005156 20 180 0.0 0.0 0.00 0.00 0.00 25 1010.5
20260504004654 20 139 0.0 0.0 0.00 0.00 0.00 24 1010.9
20260504004151 21 200 0.0 0.0 0.00 0.00 0.00 22 1010.9
20260504003648 21 200 0.0 0.0 0.00 0.00 0.00 22 1011.0
20260504003144 21 201 0.0 1.6 0.00 0.00 0.00 21 1010.6
20260504002641 21 179 1.6 1.6 0.00 0.00 0.00 20 1011.1
20260504002139 21 171 0.0 3.2 0.00 0.00 0.00 21 1011.1
20260504001637 21 190 0.0 3.2 0.00 0.00 0.00 21 1010.9
20260504001132 21 187 1.6 3.2 0.00 0.00 0.00 22 1010.7
20260504000630 21 199 0.0 3.2 0.00 0.00 0.00 21 1010.9
20260504000128 21 213 3.2 6.4 0.00 0.00 0.00 24 1011.1
20260503235626 21 184 0.0 1.6 0.00 0.00 0.00 20 1011.1
20260503235122 21 325 1.6 4.8 0.00 0.00 0.00 18 1010.9
20260503234620 21 344 4.8 11.3 0.00 0.00 0.00 19 1011.1
20260503234118 21 330 11.3 17.7 0.00 0.00 0.00 17 1011.0
20260503233614 22 20 11.3 12.9 0.00 0.00 0.00 16 1011.0
20260503233110 22 326 6.4 16.1 0.00 0.00 0.00 18 1011.1
20260503232607 22 343 4.8 14.5 0.00 0.00 0.00 17 1011.0
20260503232104 22 335 4.8 9.7 0.00 0.00 0.00 18 1011.1
20260503231602 22 278 3.2 14.5 0.00 0.00 0.00 19 1010.9
20260503231058 22 333 11.3 17.7 0.00 0.00 0.00 18 1010.9
20260503230555 22 251 3.2 4.8 0.00 0.00 0.00 18 1010.9
20260503230053 22 5 3.2 6.4 0.00 0.00 0.00 18 1011.0
20260503225549 22 332 4.8 9.7 0.00 0.00 0.00 18 1010.6
20260503225044 22 359 4.8 9.7 0.00 0.00 0.00 17 1010.9
20260503224542 22 317 4.8 12.9 0.00 0.00 0.00 18 1011.0
20260503224040 22 351 3.2 6.4 0.00 0.00 0.00 17 1010.9
20260503223538 22 351 4.8 9.7 0.00 0.00 0.00 19 1011.0
20260503223033 22 339 6.4 14.5 0.00 0.00 0.00 18 1011.0
20260503222531 22 350 12.9 14.5 0.00 0.00 0.00 17 1011.0
20260503222029 22 340 14.5 17.7 0.00 0.00 0.00 17 1011.1
20260503221527 22 354 6.4 9.7 0.00 0.00 0.00 18 1011.3
20260503221024 22 35 6.4 9.7 0.00 0.00 0.00 17 1011.3
20260503220520 22 353 11.3 14.5 0.00 0.00 0.00 17 1011.4
20260503220017 23 83 9.7 14.5 0.00 0.00 0.00 16 1011.7
20260503215514 23 344 3.2 4.8 0.00 0.00 0.00 17 1011.6